Flag for Germany Weather past 2 weeks in Freiburg, Baden-Württemberg, Germany

Now
63 °F

Overcast.


Feels Like: 63 °F
Forecast: 58 / 70 °F
Wind: No wind

Location: Freiburg

Current Time: Sep 20, 2014 at 2:03:41 AM

Latest Report: Sep 20, 2014 at 1:00 AM


Visibility: 19 mi

Pressure: 29.98 "Hg

Humidity: 90%

Dew point: 60 °F

Location of FreiburgLocation

Historic Weather in Freiburg — Graph

°F

Freiburg temperature yesterday

Maximum temperature yesterday: 75 °F (at 12:00 PM)
Minimum temperature yesterday: 61 °F (at 1:00 AM)
Average temperature yesterday: 67 °F

Past Weeks' High & Low Weather Summary

 TemperatureHumidityPressure
High79 °F (Sep 8, 4:00 PM)100% (Sep 15, 7:00 AM)30.15 "Hg (Sep 15, 7:00 AM)
Low47 °F (Sep 11, 7:00 AM)50% (Sep 6, 4:00 PM)29.82 "Hg (Sep 17, 4:00 PM)
Average62 °F84%29.98 "Hg
* Reported Sep 5 1:00 AM — Sep 20 1:00 AM, Freiburg, Weather by CustomWeather, © 2014

Note: Actual official high and low records may vary slightly from our data, if they occured in-between our weather recording intervals... More about our weather records

Advertising

Freiburg weather history for previous 24 hours

 ConditionsComfort  
Time TempWeatherWind HumidityBarometerVisibility
1:00 AM
Sep 20
63 °FOvercast.No wind90%29.98 "Hg19 mi
12:00 AM64 °FOvercast.2 mph87%29.99 "Hg25 mi
10:00 PM
Sep 19
67 °FOvercast.2 mph82%29.96 "Hg31 mi
9:00 PM65 °FOvercast.2 mph85%29.97 "Hg31 mi
8:00 PM65 °FPassing clouds.1 mph81%29.96 "Hg22 mi
7:00 PM70 °FOvercast.3 mph70%29.93 "Hg43 mi
6:00 PM72 °FOvercast.3 mph65%29.93 "Hg43 mi
4:00 PM74 °FPartly sunny.3 mph65%29.93 "Hg25 mi
3:00 PM74 °FOvercast.2 mph69%29.92 "Hg34 mi
1:00 PM75 °FSunny.3 mph66%29.93 "Hg34 mi
12:00 PM75 °FScattered clouds.1 mph63%29.92 "Hg40 mi
10:00 AM66 °FScattered clouds.1 mph86%29.93 "Hg19 mi
9:00 AM63 °FOvercast.1 mph93%29.94 "Hg17 mi
8:00 AMN/APassing clouds.5 mphN/AN/A2 mi
7:00 AM63 °FOvercast.1 mph92%29.91 "Hg34 mi
6:00 AM64 °FOvercast.3 mph85%29.90 "Hg43 mi
5:00 AM63 °FOvercast.2 mph88%29.91 "Hg37 mi
4:00 AM64 °FOvercast.5 mph84%29.90 "Hg43 mi
3:00 AM64 °FRain. Light fog.3 mph88%29.93 "Hg5 mi
Weather by CustomWeather, © 2014

See weather overviewHow to use our weather pages